{"data":{"norad_id":48404,"intl_designator":"2021-038BD","name":"STARLINK-2593","alt_names":[],"object_type":"PAYLOAD","status":"ACTIVE","operator":null,"country":"US","launch_date":"2021-05-04","launch_site_code":"AFETR","launch_vehicle":null,"mission":null,"orbit_class":"UNKNOWN","rcs_meters":null,"size_class":null,"mass_kg":null,"dimensions":null,"purposes":["comms"],"wikipedia_slug":null,"has_3d_model":false,"image_url":null,"decayed_at":null,"tle_current":{"epoch":"2026-05-24T22:22:14.442240Z","epoch_age_seconds":84030,"freshness":"FRESH","line1":"1 48404U 21038BD  26144.93211160  .00027564  00000+0  89784-3 0  9996","line2":"2 48404  53.1610 338.0679 0002078  80.8037 279.3200 15.31658735279125","mean_motion":15.31658735,"eccentricity":0.0002078,"inclination_deg":53.161,"raan_deg":338.0679,"arg_perigee_deg":80.8037,"mean_anomaly_deg":279.32,"bstar":0.00089784,"rev_number":27912,"period_min":94.01572080611,"perigee_km":469.43978460366,"apogee_km":472.28622900649,"semimajor_km":6849.0000068051,"source":"CELESTRAK","updated_at":"2026-05-25T13:38:16.712106Z"}}}